When you browse on this site, cookies collect data to enhance your experience and personalize the content and advertising you see.
Visit our Privacy Policy to learn more. By continuing to use the site, you agree to this use of cookies and data.
  • In Latvia
  • List of Countries
  • For 7 days
  • Water Temperature
  • Weather Map
  • Weather Widgets
  • user-avatar
    Login

    Hourly Weather Elbasan

    Today, 1 April, Wednesday

    Time Temperature Precipitation Wind Pressure Humidity
    00:00 +9°C° 0.2 mm 1 mps 733 mmHg 91%
    01:00 +9°C° 0 mm 1 mps 733 mmHg 90%
    02:00 +9°C° 0.5 mm 1 mps 732 mmHg 91%
    03:00 +9°C° 0.5 mm 1 mps 732 mmHg 92%
    04:00 +9°C° 0.5 mm 1 mps 732 mmHg 92%
    05:00 +9°C° 1.7 mm 1 mps 731 mmHg 93%
    06:00 +9°C° 1.7 mm 1 mps 731 mmHg 93%
    07:00 +9°C° 0 mm 1 mps 731 mmHg 94%
    08:00 +7°C° 2.3 mm 2 mps 731 mmHg 94%
    09:00 +7°C° 2.3 mm 2 mps 731 mmHg 94%
    10:00 +7°C° 2.3 mm 2 mps 730 mmHg 95%
    11:00 +7°C° 3.7 mm 2 mps 730 mmHg 95%
    12:00 +7°C° 3.7 mm 1 mps 730 mmHg 94%
    13:00 +7°C° 3.7 mm 1 mps 730 mmHg 94%
    14:00 +7°C° 1.7 mm 1 mps 730 mmHg 94%
    15:00 +7°C° 1.7 mm 1 mps 730 mmHg 94%
    16:00 +7°C° 1.7 mm 1 mps 730 mmHg 94%
    17:00 +6°C° 0.7 mm 1 mps 730 mmHg 94%
    18:00 +6°C° 0.7 mm 1 mps 730 mmHg 95%
    19:00 +5°C° 0.7 mm 1 mps 731 mmHg 96%
    20:00 +5°C° 0.2 mm 1 mps 731 mmHg 96%
    21:00 +5°C° 0.2 mm 1 mps 732 mmHg 95%
    22:00 +5°C° 0.2 mm 1 mps 732 mmHg 95%
    23:00 +4°C° 0.1 mm 1 mps 732 mmHg 93%

    Tomorrow, 2 April, Thursday

    Time Temperature Precipitation Wind Pressure Humidity
    00:00 +4°C° 0.1 mm 1 mps 732 mmHg 92%
    01:00 +4°C° 0.1 mm 1 mps 732 mmHg 91%
    02:00 +4°C° 0 mm 1 mps 732 mmHg 90%
    03:00 +3°C° 0 mm 1 mps 732 mmHg 89%
    04:00 +2°C° 0 mm 1 mps 733 mmHg 88%
    05:00 +3°C° 0 mm 1 mps 733 mmHg 86%
    06:00 +4°C° 0 mm 1 mps 733 mmHg 83%
    07:00 +5°C° 0 mm 1 mps 733 mmHg 80%
    08:00 +6°C° 0 mm 1 mps 733 mmHg 78%
    09:00 +8°C° 0 mm 1 mps 733 mmHg 75%
    10:00 +10°C° 0 mm 1 mps 733 mmHg 72%
    11:00 +10°C° 0 mm 1 mps 733 mmHg 71%
    12:00 +11°C° 0 mm 1 mps 733 mmHg 70%
    13:00 +10°C° 0 mm 2 mps 733 mmHg 70%
    14:00 +10°C° 0 mm 2 mps 733 mmHg 72%
    15:00 +10°C° 0 mm 2 mps 733 mmHg 74%
    16:00 +10°C° 0 mm 2 mps 732 mmHg 76%
    17:00 +8°C° 0 mm 2 mps 732 mmHg 80%
    18:00 +8°C° 0 mm 1 mps 732 mmHg 83%
    19:00 +7°C° 0 mm 1 mps 733 mmHg 87%
    20:00 +7°C° 0 mm 1 mps 733 mmHg 86%
    21:00 +6°C° 0 mm 1 mps 733 mmHg 84%
    22:00 +5°C° 0 mm 2 mps 733 mmHg 83%
    23:00 +6°C° 0 mm 1 mps 733 mmHg 82%

    Day after tomorrow, 3 April, Friday

    Time Temperature Precipitation Wind Pressure Humidity
    00:00 +6°C° 0 mm 1 mps 733 mmHg 82%
    01:00 +5°C° 0 mm 1 mps 733 mmHg 81%
    02:00 +5°C° 0 mm 1 mps 733 mmHg 80%
    03:00 +5°C° 0 mm 1 mps 733 mmHg 80%
    04:00 +5°C° 0 mm 1 mps 732 mmHg 79%
    05:00 +6°C° 0 mm 1 mps 733 mmHg 79%
    06:00 +7°C° 0 mm 1 mps 733 mmHg 78%
    07:00 +8°C° 0 mm 1 mps 733 mmHg 78%
    08:00 +9°C° 0 mm 1 mps 733 mmHg 75%
    09:00 +11°C° 0 mm 1 mps 733 mmHg 71%
    10:00 +12°C° 0 mm 1 mps 733 mmHg 68%
    11:00 +13°C° 0 mm 1 mps 733 mmHg 68%
    12:00 +13°C° 0 mm 1 mps 733 mmHg 67%
    13:00 +14°C° 0 mm 2 mps 733 mmHg 67%
    14:00 +13°C° 0.2 mm 2 mps 733 mmHg 73%
    15:00 +12°C° 0.2 mm 1 mps 733 mmHg 79%
    16:00 +11°C° 0.2 mm 1 mps 732 mmHg 86%
    17:00 +10°C° 0.3 mm 1 mps 732 mmHg 88%
    18:00 +10°C° 0.3 mm 1 mps 733 mmHg 90%
    19:00 +10°C° 0.3 mm 1 mps 733 mmHg 93%
    20:00 +10°C° 0.1 mm 1 mps 733 mmHg 92%
    21:00 +9°C° 0.1 mm 1 mps 733 mmHg 91%
    22:00 +8°C° 0.1 mm 2 mps 733 mmHg 90%
    23:00 +8°C° 0 mm 2 mps 733 mmHg 89%

    4 April, Saturday

    Time Temperature Precipitation Wind Pressure Humidity
    00:00 +8°C° 0 mm 2 mps 733 mmHg 88%
    01:00 +8°C° 0 mm 2 mps 733 mmHg 88%
    02:00 +8°C° 0 mm 2 mps 733 mmHg 87%
    03:00 +8°C° 0 mm 2 mps 733 mmHg 87%
    04:00 +8°C° 0 mm 2 mps 732 mmHg 87%
    05:00 +8°C° 0 mm 2 mps 732 mmHg 85%
    06:00 +9°C° 0 mm 2 mps 733 mmHg 84%
    07:00 +9°C° 0 mm 3 mps 733 mmHg 82%
    08:00 +11°C° 0 mm 3 mps 733 mmHg 77%
    09:00 +12°C° 0 mm 3 mps 733 mmHg 71%
    10:00 +13°C° 0 mm 4 mps 733 mmHg 66%
    11:00 +14°C° 0 mm 4 mps 733 mmHg 64%
    12:00 +15°C° 0 mm 4 mps 733 mmHg 62%
    13:00 +15°C° 0 mm 4 mps 733 mmHg 60%
    14:00 +14°C° 0 mm 5 mps 733 mmHg 61%
    15:00 +14°C° 0 mm 5 mps 732 mmHg 62%
    16:00 +13°C° 0 mm 5 mps 732 mmHg 63%
    17:00 +12°C° 0 mm 5 mps 732 mmHg 67%
    18:00 +11°C° 0 mm 4 mps 733 mmHg 71%
    19:00 +8°C° 0 mm 4 mps 733 mmHg 75%
    20:00 +9°C° 0 mm 3 mps 733 mmHg 76%
    21:00 +9°C° 0 mm 3 mps 734 mmHg 78%
    22:00 +8°C° 0 mm 3 mps 734 mmHg 80%
    23:00 +8°C° 0 mm 3 mps 734 mmHg 81%

    5 April, Sunday

    Time Temperature Precipitation Wind Pressure Humidity
    00:00 +8°C° 0 mm 3 mps 734 mmHg 81%
    01:00 +8°C° 0 mm 3 mps 734 mmHg 82%
    02:00 +8°C° 0 mm 3 mps 734 mmHg 81%
    03:00 +8°C° 0 mm 3 mps 734 mmHg 81%
    04:00 +7°C° 0 mm 3 mps 734 mmHg 80%
    05:00 +8°C° 0 mm 3 mps 734 mmHg 79%
    06:00 +9°C° 0 mm 3 mps 734 mmHg 78%
    07:00 +10°C° 0 mm 3 mps 734 mmHg 76%
    08:00 +11°C° 0 mm 3 mps 735 mmHg 72%
    09:00 +12°C° 0 mm 3 mps 735 mmHg 67%
    10:00 +13°C° 0 mm 4 mps 735 mmHg 62%
    11:00 +13°C° 0 mm 4 mps 735 mmHg 60%
    12:00 +14°C° 0 mm 4 mps 735 mmHg 58%
    13:00 +14°C° 0 mm 4 mps 736 mmHg 56%
    14:00 +14°C° 0 mm 4 mps 736 mmHg 57%
    15:00 +14°C° 0 mm 4 mps 736 mmHg 57%
    16:00 +14°C° 0 mm 4 mps 736 mmHg 57%
    17:00 +13°C° 0 mm 4 mps 736 mmHg 61%
    18:00 +11°C° 0 mm 3 mps 737 mmHg 66%
    19:00 +10°C° 0 mm 3 mps 737 mmHg 70%
    20:00 +10°C° 0 mm 3 mps 738 mmHg 72%
    21:00 +9°C° 0 mm 3 mps 738 mmHg 74%
    22:00 +9°C° 0 mm 2 mps 739 mmHg 76%
    23:00 +8°C° 0 mm 3 mps 739 mmHg 76%

    6 April, Monday

    Time Temperature Precipitation Wind Pressure Humidity
    00:00 +8°C° 0 mm 3 mps 739 mmHg 76%
    01:00 +8°C° 0 mm 3 mps 740 mmHg 77%
    02:00 +7°C° 0 mm 3 mps 740 mmHg 76%
    03:00 +7°C° 0 mm 3 mps 740 mmHg 76%
    04:00 +7°C° 0 mm 3 mps 741 mmHg 75%
    05:00 +8°C° 0 mm 3 mps 741 mmHg 73%
    06:00 +8°C° 0 mm 3 mps 741 mmHg 70%
    07:00 +9°C° 0 mm 3 mps 742 mmHg 67%
    08:00 +10°C° 0 mm 3 mps 742 mmHg 61%
    09:00 +12°C° 0 mm 3 mps 742 mmHg 55%
    10:00 +13°C° 0 mm 3 mps 742 mmHg 48%
    11:00 +14°C° 0 mm 3 mps 742 mmHg 44%
    12:00 +16°C° 0 mm 3 mps 742 mmHg 39%
    13:00 +17°C° 0 mm 3 mps 743 mmHg 35%
    14:00 +17°C° 0 mm 3 mps 742 mmHg 37%
    15:00 +17°C° 0 mm 3 mps 742 mmHg 38%
    16:00 +16°C° 0 mm 3 mps 742 mmHg 40%
    17:00 +14°C° 0 mm 3 mps 743 mmHg 44%
    18:00 +12°C° 0 mm 3 mps 743 mmHg 49%
    19:00 +10°C° 0 mm 3 mps 743 mmHg 54%
    20:00 +9°C° 0 mm 3 mps 743 mmHg 55%
    21:00 +9°C° 0 mm 3 mps 744 mmHg 56%
    22:00 +8°C° 0 mm 3 mps 744 mmHg 57%
    23:00 +8°C° 0 mm 3 mps 744 mmHg 58%
    Show more